#timestamp,LO_Frequency,Hit,StdDev 
1505862015.6,286047002.4,N
1505862035.4,286047000.4,N
1505862055.2,286047002.7,N
1505862075.1,286047000.2,N
1505862076.0,286047000.2,N
1505862095.8,286047004.1,N
1505862115.6,286047004.5,N
1505862135.5,286047006.0,N
1505862155.3,286047005.1,N
1505862175.1,286047003.1,N
1505862195.9,286047006.2,N
1505862215.7,286047006.6,N
1505862235.5,286047006.0,N
1505862255.4,286047002.0,N
1505862275.2,286046998.9,N
1505862295.0,286046998.2,N
1505862295.9,286046998.2,N
1505862315.8,286046996.8,N
1505862335.6,286046997.9,N
1505862355.4,286046996.0,N
1505862375.3,286046994.7,N
1505862395.1,286046991.6,N
1505862396.0,286046991.6,N
1505862415.8,286046989.6,N
1505862435.7,286046992.8,N
1505862455.5,286046984.5,Y
1505862475.3,286046981.0,P
1505862495.2,286046996.7,N
1505862515.9,286046984.3,N
1505862535.7,286046985.4,N
1505862555.5,286046989.6,N
1505862575.4,286046990.0,N
1505862595.2,286046989.9,N
1505862615.0,286046989.6,N
1505862615.9,286046989.6,N
1505862635.8,286046987.2,N
1505862655.6,286046988.6,N
1505862675.4,286046994.1,N
1505862695.3,286046992.4,N
1505862715.1,286046995.5,N
1505862716.0,286046995.5,N
1505862735.8,286046997.8,N
1505862755.7,286046995.5,N
1505862775.5,286046999.4,N
1505862795.3,286046998.7,N
1505862815.1,286047000.8,N
1505862835.9,286046997.6,N
1505862855.7,286046997.3,N
1505862875.5,286046996.9,N
1505862895.4,286046993.5,N
1505862915.2,286046992.9,N
1505862935.0,286046989.7,N
1505862935.9,286046989.7,N
1505862955.8,286046985.5,N
1505862975.6,286046990.0,N
1505862995.4,286046989.3,N
1505863015.3,286046988.2,N
1505863035.1,286046987.9,N
1505863036.0,286046987.9,N
1505863055.8,286046985.5,Y
1505863075.7,286046995.4,P
1505863095.5,286047000.9,N
1505863115.3,286047000.1,N
1505863135.2,286047001.8,N
1505863155.9,286047007.1,N
1505863175.7,286047006.6,N
1505863195.6,286047006.6,N
1505863215.4,286047008.3,N
1505863235.2,286047010.7,N
1505863255.0,286047008.1,N
1505863256.0,286047008.1,N
1505863275.8,286047008.6,N
1505863295.6,286047006.5,N
1505863315.4,286047005.0,N
1505863335.3,286047006.1,N
1505863355.1,286047005.1,N
1505863375.8,286047008.8,N
1505863395.7,286047009.3,N
1505863415.5,286047009.7,N
1505863435.3,286047012.0,N
1505863455.2,286047012.7,N
1505863475.9,286047013.5,N
1505863495.7,286047015.6,Y
1505863515.6,286047010.4,P
1505863535.4,286047006.8,P
1505863555.2,286047006.3,P
1505863575.1,286047009.2,Y
1505863576.0,286047009.2,P
1505863595.8,286047000.6,N
1505863615.6,286046998.1,N
1505863635.5,286047000.0,N
1505863655.3,286046997.0,N
1505863675.1,286047005.9,N
1505863695.9,286047002.7,N
1505863715.7,286046998.8,N
1505863735.5,286046998.6,N
1505863755.4,286046999.6,N
1505863775.2,286046998.9,N
1505863795.0,286047002.0,N
1505863795.9,286047002.0,N
1505863815.7,286047000.8,N
1505863835.6,286046997.0,N
1505863855.4,286046997.1,N
1505863875.2,286046999.4,N
1505863895.1,286046998.1,N
1505863896.0,286046998.1,N
1505863915.8,286046998.5,N
1505863935.6,286046999.2,N
1505863955.5,286046997.6,N
1505863975.3,286046996.2,N
1505863995.1,286046993.8,N
1505864015.9,286047000.7,N
1505864035.7,286046999.0,N
1505864055.5,286046997.3,N
1505864075.4,286046998.5,N
1505864095.2,286046997.4,N
1505864115.0,286046996.6,N
1505864115.9,286046996.6,N
1505864135.7,286046994.5,N
1505864155.6,286046992.5,Y
1505864175.4,286046995.1,P
1505864195.2,286046993.9,P
1505864215.1,286046995.3,N
1505864216.0,286046995.3,N
1505864235.8,286046995.7,N
1505864255.6,286046998.0,N
1505864275.5,286046993.7,Y
1505864295.3,286046999.1,P
1505864315.1,286046995.3,P
1505864335.9,286046999.4,N
1505864355.7,286047000.0,N
1505864375.5,286046999.9,N
1505864395.4,286047031.7,Y
1505864415.2,286047004.5,P
1505864435.0,286047007.1,N
1505864435.9,286047007.1,N
1505864455.8,286047006.8,N
1505864475.6,286047009.1,N
1505864495.4,286047009.7,N
1505864515.3,286047011.8,Y
1505864535.1,286047004.8,P
1505864555.8,286047009.1,P
1505864575.7,286047008.3,P
1505864595.5,286047008.3,Y
1505864615.3,286047002.7,P
1505864635.2,286047002.8,N
1505864655.9,286047000.8,N
1505864675.7,286047000.9,N
1505864695.6,286047002.8,N
1505864715.4,286047001.6,N
1505864735.2,286047002.0,N
1505864755.1,286047001.6,N
1505864756.0,286047001.6,N
1505864775.8,286047004.1,N
1505864795.6,286047003.5,N
1505864815.5,286047004.0,N
1505864835.3,286046998.3,N
1505864855.1,286047000.1,N
1505864875.8,286046998.2,N
1505864895.7,286047002.7,N
1505864915.5,286047002.1,N
1505864935.3,286047002.4,N
1505864955.2,286047001.2,N
1505864975.9,286046999.5,N
1505864995.7,286046998.8,N
1505865015.6,286046995.3,N
1505865035.4,286046996.9,N
1505865055.2,286046994.9,N
1505865075.1,286046995.3,N
1505865076.0,286046995.3,N
1505865095.8,286046995.2,N
1505865115.6,286046994.9,N
1505865135.5,286046996.3,N
1505865155.3,286046993.7,N
1505865175.1,286046993.9,N
1505865195.8,286046990.3,N
1505865215.7,286046993.5,N
1505865235.5,286046991.8,N
1505865255.3,286046992.8,N
1505865275.2,286046992.9,N
1505865295.9,286046991.3,N
1505865315.7,286046996.3,N
1505865335.6,286046995.5,N
1505865355.4,286046996.4,N
1505865375.2,286046996.5,N
1505865395.1,286046998.2,N
1505865396.0,286046998.2,N
1505865415.8,286046999.8,N
1505865435.6,286047003.8,N
1505865455.5,286047002.4,N
1505865475.3,286046999.8,N
1505865495.1,286046996.9,N
1505865515.9,286046995.1,N
1505865535.7,286047000.7,N
1505865555.5,286046995.1,N
1505865575.3,286046999.5,N
1505865595.2,286046998.4,N
